Flag for India Weather past 2 weeks in Jaipur, Rajasthan, India

Now
57 °F

Clear.


Feels Like: 56 °F
Forecast: 40 / 68 °F
Wind: 6 mph from East

Location: Jaipur / Sanganer

Current Time: Dec 27, 2014 at 10:44:58 PM

Latest Report: Dec 27, 2014 at 10:00 PM


Visibility: 1 mi

Pressure: 30.12 "Hg

Humidity: 44%

Dew point: 36 °F

Location of JaipurLocation

Historic Weather in Jaipur — Graph

°F

Jaipur temperature yesterday

Maximum temperature yesterday: 72 °F (at 2:00 PM)
Minimum temperature yesterday: 45 °F (at 5:30 AM)
Average temperature yesterday: 56 °F

Past Weeks' High & Low Weather Summary

 TemperatureHumidityPressure
High73 °F (Dec 19, 2:00 PM)100% (Dec 14, 8:00 AM)30.24 "Hg (Dec 14, 8:00 AM)
Low43 °F (Dec 21, 7:00 AM)13% (Dec 27, 2:30 PM)29.92 "Hg (Dec 13, 4:00 PM)
Average58 °F66%30.09 "Hg
* Reported Dec 12 10:00 PM — Dec 27 9:30 PM, Jaipur, Weather by CustomWeather, © 2014

Note: Actual official high and low records may vary slightly from our data, if they occured in-between our weather recording intervals... More about our weather records

Advertising

Jaipur weather history for previous 24 hours

 ConditionsComfort  
Time TempWeatherWind HumidityBarometerVisibility
9:30 PM
Dec 27
59 °FClear.7 mph42%30.12 "Hg1 mi
8:30 PM55 °FClear.1 mph47%30.09 "Hg1 mi
7:30 PM61 °FHaze.No wind36%30.09 "Hg1 mi
7:00 PM59 °FHaze.2 mph36%30.09 "Hg1 mi
6:00 PM64 °FHaze.3 mph24%30.07 "Hg1 mi
5:30 PM70 °FHaze.5 mph17%30.07 "Hg1 mi
5:00 PM72 °FHaze.3 mph16%30.04 "Hg2 mi
4:00 PM73 °FHaze.6 mph13%30.04 "Hg2 mi
3:30 PM73 °FHaze.3 mph13%30.04 "Hg2 mi
3:00 PM72 °FHaze.6 mph14%30.04 "Hg2 mi
2:30 PM73 °FHaze.3 mph13%30.04 "Hg2 mi
2:00 PM72 °FHaze.9 mph14%30.04 "Hg2 mi
1:30 PM72 °FHaze.7 mph15%30.07 "Hg2 mi
1:00 PM70 °FHaze.6 mph20%30.07 "Hg2 mi
11:00 AM66 °FHaze.7 mph30%30.09 "Hg1 mi
10:00 AM64 °FHaze.3 mph32%30.09 "Hg1 mi
9:00 AM57 °FFog.2 mph55%30.09 "Hg1 mi
8:00 AM48 °FFog.5 mph66%30.07 "Hg1 mi
7:30 AM45 °FFog.1 mph76%30.07 "Hg1 mi
7:00 AM46 °FFog.No wind71%30.04 "Hg1 mi
6:30 AM45 °FFog.1 mph76%30.04 "Hg1 mi
6:00 AM46 °FFog.3 mph71%30.04 "Hg1 mi
5:00 AM48 °FFog.No wind71%30.01 "Hg1 mi
1:00 AM52 °FClear.5 mph54%30.04 "Hg1 mi
12:00 AM52 °FClear.No wind54%30.04 "Hg1 mi
11:00 PM
Dec 26
52 °FClear.1 mph54%30.07 "Hg1 mi
10:00 PM55 °FClear.2 mph47%30.07 "Hg1 mi
Weather by CustomWeather, © 2014

See weather overviewHow to use our weather pages